Location: ????????
(41.2031°N, 22.5756°E)
Time: 05:50:38
(UTC+00:00)

CZ-4 R/B - Pass Details

Date: 01 December 2020
Orbit: 532 x 597 km, 97.7° (Epoch: 20 January)

Event Time Altitude Azimuth Distance (km) Brightness Sun altitude
Rises 15:58:54 0° 125° (SE) 2,718 4.5 -10.7°
Enters shadow 15:59:10 - 124° (SE) 2,624 4.4 -10.7°
Exits shadow 16:05:10 15° 47° (NE) 1,570 3.1 -11.8°
Drops below altitude 10° 16:06:39 10° 26° (NNE) 1,875 3.6 -12.0°
Sets 16:09:29 0° 6° (N) 2,793 4.7 -12.5°
